Regional Weather Roundup
Issued by NWS

Home | Current Version | Previous Version | Text Only | Print | Product List | Glossary Off
Versions: 1 2 3 4 5 6 7 8 9 10 11 12 13 14 15 16 17 18 19 20 21 22 23 24 25 26 27 28 29 30 31 32 33 34 35 36 37 38 39 40 41 42 43 44 45 46 47 48 49 50

000
ASUS43 KIND 221909
RWRIN

WEATHER ROUNDUP FOR INDIANA
NATIONAL WEATHER SERVICE INDIANAPOLIS IN
200 PM EST WED FEB 22 2017

NOTE: "FAIR" INDICATES FEW OR NO CLOUDS BELOW 12,000 FEET WITH NO
SIGNIFICANT WEATHER AND/OR OBSTRUCTIONS TO VISIBILITY.

* - STATION DOES NOT REPORT WEATHER SUCH AS PRECIPITATION OR FOG.

+ - STATION NOT QUALITY CONTROLLED BY THE NATIONAL WEATHER SERVICE.
    USE DATA WITH CAUTION...ESPECIALLY DEWPOINT AND RELATIVE
    HUMIDITY OBSERVATIONS.

INZ001>003-010>013-019-020-222000-
NORTHWEST INDIANA

CITY           SKY/WX    TMP DP  RH WIND       PRES   REMARKS
GARY /AIRPORT/ CLOUDY    61  54  77 S8        29.77S HAZE
KNOX *+        CLOUDY    59  37  44 S9        29.77F
LA PORTE +     CLOUDY    59  54  84 SW8       29.76F
MICHIGAN CITY+ CLOUDY    61  54  77 SW12      29.75F
MONTICELLO +   CLOUDY    63  54  73 SW8       29.77F
RENSSELAER +   PTSUNNY   64  55  72 SW14      29.76F
VALPARAISO     CLOUDY    65  56  72 SW10      29.76F HAZE

$$

LMZ046-743>745-222000-
SOUTHERN LAKE MICHIGAN

STATION/POSITION TIME  TEMP    WIND        PRES    WAVE
                       AIR SEA DIR/SP/G            HT
                 (UTC) (F)     (DEG/KT/KT) (MB)    (FT)
BURNS HARBOR     1840   59     210/ 13/ 19 1007.8F
MICHIGAN CITY    1840   59     180/ 12/ 14   N/A

$$

INZ004-005-014>016-021>024-222000-
NORTH CENTRAL INDIANA

CITY           SKY/WX    TMP DP  RH WIND       PRES   REMARKS
ELKHART        CLOUDY    57  54  88 S8        29.77F HAZE
GOSHEN         CLOUDY    63  53  70 S8        29.77F
LOGANSPORT +   CLOUDY    59  54  82 SW10      29.80S
PERU/GRISSOM   CLOUDY    61  60  94 S12       29.75F
ROCHESTER +    CLOUDY    61  55  82 S8        29.79S HAZE
SOUTH BEND     CLOUDY    59  54  83 S10       29.78F
WARSAW +       CLOUDY    61  54  77 S5        29.77F

$$

INZ006>009-017-018-025>027-222000-
NORTHEAST INDIANA

CITY           SKY/WX    TMP DP  RH WIND       PRES   REMARKS
ANGOLA *+      CLOUDY    61  55  82 S12       29.78F
AUBURN +       CLOUDY    61  52  72 S9        29.80F
FORT WAYNE     CLOUDY    62  53  72 SW9       29.79F
HUNTINGTON +   CLOUDY    61  54  76 SW10      29.78F
KENDALLVILLE + CLOUDY    59  54  82 SW9       29.79F

$$

INZ028-029-035-036-043>045-051>053-222000-
WEST CENTRAL INDIANA

CITY           SKY/WX    TMP DP  RH WIND       PRES   REMARKS
LAFAYETTE      PTSUNNY   65  56  72 S10       29.77F
TERRE HAUTE    PTSUNNY   67  55  65 S14       29.79F

$$

INZ030>032-037>040-046>048-054>057-064-065-222000-
CENTRAL INDIANA

CITY           SKY/WX    TMP DP  RH WIND       PRES   REMARKS
ANDERSON       CLOUDY    59  55  88 S12G17    29.82F
CP ATTERBURY + CLOUDY    63  54  72 S7        29.83F
COLUMBUS       CLOUDY    61  57  88 SW12      29.84F
FISHERS *+     CLOUDY    61  57  88 S9        29.80
FRANKFORT +    CLOUDY    65  57  76 SW12      29.80F
GREENWOOD *+   CLOUDY    64  56  76 SW9       29.82F
INDIANAPOLIS   PTSUNNY   64  55  72 S13       29.80F
-EAGLE CREEK   CLOUDY    63  54  72 S12       29.80F
KOKOMO +       CLOUDY    60  55  83 S14       29.80F
MARION +       CLOUDY    61  54  77 S10       29.80F
MT COMFORT *+  CLOUDY    61  54  77 S12       29.82F
SHELBYVILLE    CLOUDY    63  55  75 S13       29.82F
ZIONSVILLE +   CLOUDY    60  55  82 S13       29.81F

$$

INZ033-034-041-042-049-050-058-059-222000-
EAST CENTRAL INDIANA

CITY           SKY/WX    TMP DP  RH WIND       PRES   REMARKS
MUNCIE         CLOUDY    63  54  72 S14G20    29.80F

$$

INZ060-061-067>069-081>083-085>088-222000-
SOUTHWEST INDIANA

CITY           SKY/WX    TMP DP  RH WIND       PRES   REMARKS
EVANSVILLE     MOSUNNY   70  56  61 SW3       29.84F
HUNTINGBURG *+ MOSUNNY   69  58  67 S8        29.84F
WASHINGTON +   CLOUDY    68  57  68 S9        29.82F

$$

INZ062-063-066-070>080-084-089>092-222000-
SOUTH CENTRAL AND SOUTHEAST INDIANA

CITY           SKY/WX    TMP DP  RH WIND       PRES   REMARKS
BEDFORD +      PTSUNNY  N/A N/A N/A CALM      29.83F
BLOOMINGTON    PTSUNNY   66  55  67 S7        29.82F
MADISON *+     PTSUNNY   66  55  68 S6        29.86F
NORTH VERNON + CLOUDY   N/A N/A N/A S5        29.86F
SEYMOUR +      CLOUDY    64  57  77 CALM      29.84F

$$





USA.gov is the U.S. government's official web portal to all federal, state and local government web resources and services.